Location: The Saddle
(36.8333°N, 80.3417°W)
Time: 22:25:17
(UTC-05:00)

Envisat - Visible Passes

Search period start: 05 December 2021 00:00
Search period end: 15 December 2021 00:00
Orbit: 764 x 766 km, 98.2° (Epoch: 05 December)

Date Brightness Start Highest point End Pass type
(mag) Time Alt. Az. Time Alt. Az. Time Alt. Az.
05 Dec 3.7 04:59:51 10° NNE 05:04:50 53° E 05:09:46 10° S visible
05 Dec 4.4 06:40:13 10° NNW 06:43:22 17° WNW 06:46:30 10° WSW visible
05 Dec 6.0 17:53:19 10° SW 17:56:10 15° W 17:59:00 10° WNW visible
06 Dec 5.2 04:23:49 10° NE 04:27:48 23° E 04:31:43 10° SE visible
06 Dec 3.5 06:02:13 10° N 06:06:51 36° WNW 06:11:27 10° SW visible
07 Dec 2.9 05:25:02 10° N 05:30:08 85° WNW 05:35:12 10° SSW visible
08 Dec 4.2 04:48:27 10° NNE 04:53:14 41° E 04:57:59 10° SSE visible
08 Dec 4.1 06:28:11 10° NNW 06:31:56 21° WNW 06:35:41 10° WSW visible
08 Dec 5.8 17:40:54 10° SW 17:44:30 19° W 17:48:07 10° NW visible
09 Dec 5.6 04:12:47 10° NE 04:16:08 18° E 04:19:28 10° SE visible
09 Dec 3.2 05:50:30 10° N 05:55:21 47° WNW 06:00:11 10° SW visible
10 Dec 3.1 05:13:29 10° NNE 05:18:35 75° ESE 05:23:38 10° S visible
10 Dec 6.5 18:09:38 10° W 18:10:03 10° W 18:10:30 10° W visible
11 Dec 4.7 04:37:07 10° NE 04:41:37 31° E 04:46:06 10° SSE visible
11 Dec 3.8 06:16:17 10° NNW 06:20:29 27° WNW 06:24:40 10° SW visible
11 Dec 5.6 17:28:43 10° SSW 17:32:51 25° W 17:37:00 10° NW visible
12 Dec 5.9 04:02:04 10° ENE 04:04:28 13° E 04:06:52 10° ESE visible
12 Dec 2.9 05:38:50 10° N 05:43:51 61° WNW 05:48:50 10° SSW visible
13 Dec 3.5 05:02:00 10° NNE 05:07:01 57° E 05:11:59 10° S visible
13 Dec 4.4 06:42:35 10° NNW 06:45:30 16° WNW 06:48:25 10° W visible
13 Dec 6.1 17:55:51 10° WSW 17:58:22 14° W 18:00:54 10° WNW visible
14 Dec 5.1 04:25:53 10° NE 04:29:59 24° E 04:34:05 10° SSE visible
14 Dec 3.5 06:04:27 10° N 06:09:00 34° WNW 06:13:32 10° SW visible
